Powrót do katalogu

COSMOS 2251 DEB

AktywnyLEO
NORAD 33791·DEBRIS·🇷🇺 Russia

Wystrzelony Jun 16, 1993 z Plesetsk Cosmodrome

Loading…

Następne Przeloty (najbliższe 24 godziny)

TLE

ŚwieżeSource: Space-Track

Epoka: Sep 13, 2026, 23:00 UTC

1 33791U 93036AG  26256.95863350  .00001703  00000-0  50063-3 0  9992
2 33791  74.1709 250.2029 0028569 357.4117  24.3944 14.44250039920246

Śledź COSMOS 2251 DEB w czasie rzeczywistym z AllMySat

Download on the App Store